Flag for Reunion (French) Weather past 2 weeks in Saint-Pierre, Reunion (French)

82 °F

Partly sunny.

Feels Like: 86 °F
Forecast: 74 / 84 °F
Wind: 8 mph from South

Location: Saint Airport-Pierre

Current Time: Nov 26, 2015 at 3:24:27 PM

Latest Report: Nov 26, 2015 at 3:00 PM

Visibility: N/A

Pressure: 29.92 "Hg

Humidity: 66%

Dew point: 70 °F

Location of Saint-PierreLocation

Historic Weather in Saint-Pierre — Graph


Saint-Pierre temperature yesterday

Maximum temperature yesterday: 82 °F (at 11:00 AM)
Minimum temperature yesterday: 72 °F (at 7:30 AM)
Average temperature yesterday: 77 °F

Past Weeks' High & Low Weather Summary

High86 °F (Nov 18, 1:30 PM)94% (Nov 25, 7:30 AM)30.09 "Hg (Nov 25, 7:30 AM)
Low66 °F (Nov 12, 4:00 AM)38% (Nov 12, 7:00 AM)29.80 "Hg (Nov 24, 2:00 PM)
Average78 °F67%29.97 "Hg
* Reported Nov 11 2:00 PM — Nov 26 2:00 PM, Saint-Pierre, Weather by CustomWeather, © 2015

Note: Actual official high and low records may vary slightly from our data, if they occured in-between our weather recording intervals... More about our weather records


Saint-Pierre weather history for previous 24 hours

Time TempWeatherWind HumidityBarometerVisibility
2:00 PM
Thu, Nov 26
82 °FMostly cloudy.7 mph66%29.95 "HgN/A
1:30 PM82 °FOvercast.7 mph66%29.95 "HgN/A
1:00 PM82 °FOvercast.7 mph66%29.95 "HgN/A
12:30 PM82 °FMostly cloudy.9 mph66%29.95 "HgN/A
12:00 PM82 °FOvercast.13 mph70%29.95 "HgN/A
11:30 AM84 °FPartly sunny.15 mph66%29.98 "HgN/A
11:00 AM84 °FWarm.16 mph66%29.98 "HgN/A
10:30 AM84 °FWarm.16 mph62%29.98 "HgN/A
10:00 AM82 °FWarm.13 mph70%29.98 "HgN/A
9:30 AM84 °FWarm.12 mph66%29.98 "HgN/A
9:00 AM82 °FWarm.9 mph70%29.98 "HgN/A
8:30 AM81 °FWarm.9 mph74%29.98 "HgN/A
7:30 AM79 °FWarm.1 mph74%29.95 "HgN/A
7:00 AM79 °FWarm.2 mph79%29.95 "HgN/A
6:30 AM75 °FMild.3 mph83%29.95 "HgN/A
6:00 AM73 °FMild.7 mph89%29.92 "HgN/A
5:30 AM73 °FMild.7 mph83%29.92 "HgN/A
5:00 AM73 °FMild.6 mph83%29.92 "HgN/A
4:30 AM73 °FMild.7 mph89%29.92 "HgN/A
4:00 AM73 °FMild.7 mph89%29.92 "HgN/A
3:00 AM73 °FMild.3 mph89%29.92 "HgN/A
2:30 AM73 °FPassing clouds.3 mph89%29.92 "HgN/A
2:00 AM75 °FOvercast.5 mph83%29.92 "HgN/A
1:30 AM73 °FPassing clouds.6 mph89%29.95 "HgN/A
1:00 AM73 °FPassing clouds.6 mph89%29.95 "HgN/A
12:30 AM73 °FMostly cloudy.5 mph89%29.95 "HgN/A
12:00 AM73 °FMostly cloudy.7 mph94%29.95 "HgN/A
11:30 PM
Wed, Nov 25
73 °FMostly cloudy.7 mph89%29.98 "HgN/A
11:00 PM73 °FMostly cloudy.6 mph89%29.98 "HgN/A
10:30 PM72 °FDrizzle. Mostly cloudy.7 mph94%29.98 "HgN/A
10:00 PM72 °FLight rain. Fog.5 mph94%29.98 "Hg2 mi
9:30 PM72 °FRain. Fog.7 mph94%29.98 "Hg3 mi
9:00 PM73 °FMostly cloudy.7 mph89%29.95 "HgN/A
8:30 PM75 °FLight rain. Fog.7 mph89%29.95 "Hg3 mi
8:00 PM75 °FLight rain. Overcast.9 mph89%29.95 "HgN/A
7:30 PM75 °FLight rain. Overcast.8 mph89%29.92 "Hg4 mi
7:00 PM77 °FLight rain. Mostly cloudy.6 mph89%29.92 "HgN/A
6:30 PM77 °FLight rain. Mostly cloudy.6 mph83%29.89 "HgN/A
6:00 PM79 °FMostly cloudy.3 mph74%29.89 "HgN/A
5:30 PM79 °FMostly cloudy.3 mph70%29.89 "HgN/A
5:00 PM81 °FCloudy.5 mph70%29.86 "HgN/A
4:30 PM81 °FMostly cloudy.6 mph70%29.86 "HgN/A
4:00 PM81 °FOvercast.7 mph70%29.86 "HgN/A
3:30 PM81 °FMore clouds than sun.7 mph70%29.86 "HgN/A
3:00 PM82 °FPartly sunny.8 mph66%29.86 "HgN/A
Weather by CustomWeather, © 2015

See weather overviewHow to use our weather pages